Home > Weather > Pensacola > Past weeks

Flag for USA Weather for the Past 2 Weeks in Pensacola, Florida, USA

Now
74 °F

Sunny.


Feels Like: 77 °F
Forecast: 55 / 78 °F
Wind: 9 mph from North

Location: Pensacola Regional Airport

Current Time: May 6, 2016 at 2:50:37 PM

Latest Report: May 6, 2016 at 1:53 PM


Visibility: 10 mi

Pressure: 29.98 "Hg

Humidity: 35%

Dew Point: 44 °F

Location of PensacolaLocation

Historic Weather in Pensacola — Graph

°F

Pensacola Temperature Yesterday

Maximum temperature yesterday: 78 °F (at 1:53 PM)
Minimum temperature yesterday: 60 °F (at 5:53 AM)
Average temperature yesterday: 69 °F

High & Low Weather Summary for the Past Weeks

 TemperatureHumidityPressure
High85 °F (Apr 29, 2:53 PM)94% (Apr 30, 4:53 AM)30.04 "Hg (Apr 30, 4:53 AM)
Low55 °F (May 6, 5:53 AM)24% (May 5, 5:53 PM)29.79 "Hg (Apr 27, 9:00 PM)
Average73 °F73%29.93 "Hg
* Reported Apr 21 1:57 PM — May 6 1:53 PM, Pensacola, Weather by CustomWeather, © 2016

Note: Actual official high and low records may vary slightly from our data, if they occured in-between our weather recording intervals... More about our weather records

Advertising

Pensacola Weather History for the Previous 24 Hours

Scroll right to see more
 ConditionsComfort  
Time TempWeatherWind HumidityBarometerVisibility
1:53 PM
Fri, May 6
74 °FSunny.9 mph35%29.98 "Hg10 mi
12:53 PM73 °FSunny.9 mph36%30.00 "Hg10 mi
11:53 AM72 °FSunny.12 mph37%30.02 "Hg10 mi
10:53 AM68 °FSunny.12 mph40%30.02 "Hg10 mi
9:53 AM65 °FSunny.13 mph45%30.02 "Hg10 mi
8:53 AM61 °FSunny.13 mph52%30.03 "Hg10 mi
7:53 AM59 °FSunny.7 mph58%30.02 "Hg10 mi
6:53 AM55 °FSunny.5 mph67%29.99 "Hg10 mi
5:53 AM55 °FClear.5 mph67%29.96 "Hg10 mi
4:53 AM56 °FClear.7 mph65%29.95 "Hg10 mi
3:53 AM59 °FClear.10 mph56%29.93 "Hg10 mi
2:53 AM61 °FClear.9 mph48%29.93 "Hg10 mi
1:53 AM61 °FClear.8 mph52%29.93 "Hg10 mi
12:53 AM60 °FClear.8 mph56%29.93 "Hg10 mi
11:53 PM
Thu, May 5
62 °FPassing clouds.6 mph50%29.93 "Hg10 mi
10:53 PM63 °FClear.6 mph48%29.91 "Hg10 mi
9:53 PM66 °FClear.3 mph39%29.90 "Hg10 mi
8:53 PM66 °FClear.5 mph40%29.88 "Hg10 mi
7:53 PM68 °FClear.7 mph38%29.86 "Hg10 mi
6:53 PM73 °FSunny.9 mph30%29.83 "Hg10 mi
5:53 PM76 °FSunny.17 mph24%29.83 "Hg10 mi
4:53 PM77 °FSunny.15 mph26%29.82 "Hg10 mi
3:53 PM78 °FSunny.17 mph25%29.82 "Hg10 mi
2:53 PM77 °FSunny.16 mph28%29.84 "Hg10 mi
Weather by CustomWeather, © 2016

See weather overviewHow to use our weather pages